Regional Weather Roundup
Issued by NWS

Home | Current Version | Previous Version | Graphics & Text | Print | Product List | Glossary On
Versions: 1 2 3 4 5 6 7 8 9 10 11 12 13 14 15 16 17 18 19 20 21 22 23 24 25 26 27
000
ASUS45 KBOI 282010
RWRID

IDAHO REGIONAL WEATHER ROUNDUP
NATIONAL WEATHER SERVICE BOISE ID
200 PM MDT FRI APR 28 2017

NOTE: "FAIR" INDICATES FEW OR NO CLOUDS BELOW 12000 FEET
WITH NO SIGNIFICANT WEATHER AND/OR OBSTRUCTIONS TO VISIBILITY

IDZ012-014-282100-
SOUTHWEST IDAHO


CITY           SKY/WX    TMP DP  RH WIND       PRES   REMARKS
BOISE          PTSUNNY   54  30  40 NW23G32   30.07S
CALDWELL       MOSUNNY   54  31  41 NW16G26   30.11F
MOUNTAIN HOME  SUNNY     54  28  36 NW30G37   30.04S
$$

IDZ016-017-282100-
SOUTHCENTRAL IDAHO


CITY           SKY/WX    TMP DP  RH WIND       PRES   REMARKS
BURLEY         PTSUNNY   47  24  40 NW10      29.98S
JEROME         MOSUNNY   51  22  31 W13G21    30.01S
TWIN FALLS     MOSUNNY   50  25  37 W12G24    30.01S
$$

IDZ019>023-282100-
SOUTHEAST IDAHO


CITY           SKY/WX    TMP DP  RH WIND       PRES   REMARKS
IDAHO FALLS    CLOUDY    46  28  49 N14       29.93S
POCATELLO      CLOUDY    44  30  57 N10G22    29.97S
REXBURG        CLOUDY    47  23  38 NE14      29.92R
$$

IDZ006-010-011-018-031-032-282100-
CENTRAL IDAHO MOUNTAINS


CITY           SKY/WX    TMP DP  RH WIND       PRES   REMARKS
MCCALL         CLOUDY    43  23  45 N12       30.08R
HAILEY         MOSUNNY   46  16  29 N10       29.98R
STANLEY          N/A     39  15  37 NW9       30.03S WCI  33
SALMON         CLOUDY    48  21  34 N9G18     30.03S
CHALLIS        MOSUNNY   48  17  29 N7G22     30.01F
$$

IDZ002-004-006-007-026-282100-
NORTHERN IDAHO


CITY           SKY/WX    TMP DP  RH WIND       PRES   REMARKS
LEWISTON       CLOUDY    56  34  43 N8        30.21R
LOWELL           N/A     46  38  73 S5        30.25S
COEUR D`ALENE  CLOUDY    48  36  63 VRB7      30.18S
MULLAN PASS    FOG       33  31  92 VRB6      30.11R VSB 1/4 WCI  28
$$




USA.gov is the U.S. government's official web portal to all federal, state and local government web resources and services.